Location: Trois-Rivi�res
(46.3500°N, 72.5500°W)
Time: 12:48:24
(UTC-05:00)

Envisat - Pass Details

Date: 07 October 2017
Orbit: 764 x 766 km, 98.2° (Epoch: 17 December)

Event Time Altitude Azimuth Distance (km) Brightness Sun altitude
Exits shadow 21:18:26 33° 237° (WSW) 1,275 4.3 -31.1°
Maximum altitude 21:19:31 36° 264° (W) 1,192 4.3 -31.3°
Drops below altitude 10° 21:24:13 10° 331° (NNW) 2,314 6.1 -32.0°
Sets 21:26:42 0° 339° (NNW) 3,246 6.9 -32.4°
